Temp
22 22 21 20 19 18 18 18 19 20 20 20 22 21 23 23 23 23 20 18 19 20 21 22 21 21 21 20 19 19 19 20
20 17 17 16 16 15 16 16 16 20 21 20 21 23 21 22 23 23 21 18 19 20 21 21 20 21 21 19 18 19 20 20
18 16 14 12 11 10 12 13 14 15 21 21 21 22 22 21 23 23 22 19 18 20 20 21 20 20 20 20 19 19 20 19
15 13 11 9 9 9 9 9 10 13 15 21 22 22 23 22 21 22 22 20 18 20 20 21 20 20 20 19 18 19 20 19
13 12 9 8 7 7 6 6 7 10 14 18 22 23 24 22 20 21 22 20 18 19 20 21 18 19 20 18 18 19 20 19
12 10 9 7 5 5 4 4 5 9 12 16 21 22 24 23 21 20 21 20 20 18 20 20 18 18 19 19 18 19 20 18
11 9 8 6 4 4 3 3 4 7 11 16 21 21 23 24 22 20 20 21 19 18 18 19 20 18 19 18 18 19 19 20
10 9 6 4 3 2 2 2 3 6 11 18 20 20 20 23 21 20 20 19 20 18 17 18 19 18 18 19 17 18 19 19
10 8 5 3 2 2 1 2 3 4 10 19 20 20 21 22 21 19 18 18 19 18 17 17 18 18 18 18 18 18 19 19
9 7 5 2 2 1 1 1 2 3 7 14 20 20 20 22 21 21 18 20 18 19 17 16 17 17 17 17 17 17 18 18
8 6 3 2 2 1 1 1 2 3 5 7 17 20 21 22 21 20 19 20 20 18 17 16 16 16 17 17 16 17 17 18
8 6 2 1 2 1 1 1 1 2 3 5 7 11 15 22 22 21 17 19 19 18 17 16 16 16 16 16 16 16 16 17
7 5 2 1 1 0 0 0 1 1 3 3 5 6 9 11 13 16 20 20 19 18 17 16 16 16 16 16 16 16 16 17
6 3 1 -0 -0 -0 -0 -0 0 1 3 2 3 4 5 8 9 12 15 18 19 19 18 17 16 16 16 16 16 16 17 17
5 2 1 -0 -1 -1 -1 -1 -0 1 1 1 1 3 4 5 6 9 12 14 16 16 16 16 16 16 16 15 16 16 16 16
5 2 1 0 -1 -1 -1 -1 -0 0 0 1 1 1 3 3 4 5 7 11 13 15 15 15 15 15 15 15 15 15 15 15
5 4 2 1 0 -0 -1 -1 -1 -0 -0 -0 -0 0 1 2 3 3 5 6 11 13 14 15 15 14 15 15 15 14 15 15
6 5 3 2 1 1 0 -1 -1 0 -0 -0 -1 -0 0 0 2 2 3 4 5 8 9 10 10 10 13 14 14 15 14 14
6 5 4 3 2 1 1 0 -1 0 0 -0 -1 -0 -0 0 -0 1 2 2 2 2 4 4 3 4 7 12 13 14 14 14
Height
767 766 764 763 760 755 752 748 743 739 737 736 731 728 726 728 729 733 737 741 748 754 755 759 765 769 773 777 779 783 787 791
773 775 774 770 765 760 748 743 736 732 727 726 725 717 719 717 718 721 727 731 739 744 748 751 757 761 767 772 777 778 782 786
780 780 778 773 766 760 750 740 732 725 716 713 714 712 708 710 710 710 715 721 728 733 740 743 749 756 761 767 770 773 775 780
783 781 778 773 765 756 748 739 728 719 710 702 702 701 698 697 701 704 706 713 721 727 732 737 740 748 753 758 764 767 769 774
786 779 776 769 762 756 747 735 724 712 702 694 689 685 685 687 695 698 696 703 710 720 725 729 733 739 746 751 758 762 765 768
782 778 775 771 764 752 742 730 718 703 692 684 677 676 675 675 685 691 690 692 701 708 716 724 725 731 738 743 750 755 759 764
785 781 775 768 761 750 737 721 706 693 682 670 664 667 665 662 669 679 680 681 693 699 708 717 719 724 729 735 742 748 752 757
781 776 772 764 754 743 727 711 694 682 667 654 655 659 659 653 659 670 675 675 686 690 699 709 714 716 722 728 735 741 746 750
780 777 772 765 752 740 724 710 693 679 661 645 649 652 653 650 653 663 672 676 670 692 694 702 708 712 716 722 727 735 741 745
782 778 772 763 752 738 725 710 696 683 668 648 643 646 648 645 650 654 664 666 676 689 684 695 703 706 711 715 720 726 733 739
780 777 771 763 753 740 725 713 701 687 671 655 639 638 640 637 641 646 652 651 654 669 680 691 696 697 704 710 715 721 727 732
780 776 772 763 752 740 727 713 700 687 674 663 651 640 633 629 637 640 632 657 664 662 677 684 685 690 698 704 708 715 722 727
782 779 773 763 750 738 726 715 703 693 681 668 657 648 640 632 636 643 614 650 653 647 665 677 676 683 689 696 703 708 712 718
784 780 773 763 752 741 730 721 711 701 689 678 666 657 649 644 638 638 641 643 636 646 660 666 666 676 684 689 695 700 705 708
787 783 775 766 757 748 738 727 718 708 698 687 676 668 664 660 654 648 644 643 652 655 660 661 663 673 679 684 687 692 699 704
787 784 778 770 761 752 743 733 726 717 707 696 688 681 676 669 665 659 657 656 657 657 658 661 667 673 675 678 683 688 694 699
788 785 780 774 767 759 751 745 732 725 717 707 699 692 686 683 678 672 669 665 661 664 665 669 672 672 675 678 682 687 690 693
788 784 780 775 770 764 757 748 741 733 722 714 708 702 698 695 690 678 681 675 671 668 671 673 674 675 675 679 682 685 689 691
790 786 781 777 772 767 760 753 748 740 729 721 712 703 711 707 695 678 694 684 683 680 678 677 681 679 677 676 680 682 685 688
Wind_Speed
27 32 32 32 39 42 38 36 36 35 30 33 32 37 36 35 36 34 33 39 36 32 28 26 25 23 22 22 22 21 19 18
30 35 37 39 39 39 44 41 42 35 32 31 34 34 38 37 35 37 36 36 39 37 31 29 30 27 25 25 23 22 21 19
25 31 35 36 41 39 40 46 42 44 36 36 35 36 36 41 39 39 39 38 42 40 36 32 32 27 27 26 25 24 22 25
24 31 36 36 41 39 41 44 45 44 46 36 35 36 38 39 40 38 39 38 39 39 39 33 35 30 29 29 28 25 23 22
23 28 34 37 41 38 39 40 43 45 45 40 37 32 32 33 36 40 37 40 38 40 39 36 35 33 29 32 30 27 24 21
24 29 32 35 38 39 37 37 41 41 44 48 37 35 35 35 36 42 39 39 39 40 37 39 35 37 32 32 31 30 27 24
24 32 35 36 37 39 37 36 40 40 41 46 35 37 36 31 33 35 38 34 37 37 38 37 37 36 35 34 34 32 30 27
24 25 31 37 41 40 40 42 45 44 47 39 35 35 45 33 34 32 32 32 28 34 38 39 38 38 36 33 33 31 34 30
24 28 32 33 39 38 41 42 44 45 47 29 31 34 35 35 31 34 33 33 13 27 38 42 38 35 35 34 32 32 32 30
24 31 34 33 38 37 39 41 42 41 37 27 29 31 37 30 33 38 46 46 57 36 34 39 40 35 34 34 33 35 31 32
23 26 33 34 36 35 39 39 37 38 36 32 16 28 35 33 39 34 29 37 44 35 34 40 39 35 33 34 32 32 32 30
22 25 32 34 37 36 39 41 42 41 39 35 28 15 12 29 27 29 42 44 40 38 39 36 33 34 33 34 31 29 31 29
20 28 32 33 38 40 41 43 43 42 37 36 33 31 29 23 13 8 11 23 26 31 29 34 32 33 32 33 34 32 33 30
21 22 25 31 36 40 41 42 42 40 36 35 33 36 34 33 31 25 15 5 9 15 24 27 31 33 35 37 35 33 31 33
18 16 22 29 33 37 38 40 42 40 35 35 36 36 33 30 29 27 23 16 4 15 21 25 28 30 32 31 30 30 28 28
18 15 16 26 31 36 37 38 38 37 34 36 36 35 32 29 28 28 25 19 14 7 9 13 16 23 25 28 28 26 26 25
18 16 18 21 26 29 31 33 34 34 30 31 33 35 33 29 25 29 24 20 16 9 8 2 10 8 9 17 19 22 25 27
17 16 18 21 24 28 27 30 32 29 31 31 32 32 33 28 22 30 23 20 17 15 14 9 9 4 9 17 23 21 22 22
15 19 22 24 24 26 26 25 26 27 30 31 35 40 29 23 26 35 22 21 17 15 12 11 10 17 6 12 22 21 22 26
Wind_Direction
338 333 337 332 323 316 311 307 289 276 264 264 266 235 227 221 212 208 203 202 202 204 201 198 196 198 196 193 187 193 199 203
350 345 333 325 317 309 307 309 302 282 257 248 247 248 233 220 216 208 201 202 200 200 201 195 193 196 199 189 193 194 199 199
341 337 330 331 323 316 309 304 302 297 268 247 246 243 233 228 216 207 202 200 200 198 198 193 191 196 196 194 193 196 199 188
344 337 337 331 323 320 314 307 302 294 288 250 243 241 247 218 222 212 203 199 198 201 196 195 190 194 195 193 197 200 195 183
339 337 342 330 324 318 314 308 301 292 284 275 241 238 234 227 224 217 202 199 195 204 199 196 190 191 195 195 197 203 194 188
342 342 338 331 324 323 317 312 305 295 283 273 237 234 239 216 220 226 210 197 196 198 201 200 192 191 197 195 196 201 199 191
343 340 335 333 330 324 323 323 316 307 285 273 232 234 241 210 211 217 218 198 195 194 201 205 198 194 194 195 197 200 199 204
344 343 342 338 333 326 334 334 325 320 308 263 228 227 237 228 206 212 221 202 196 192 196 207 203 199 196 194 195 200 202 202
345 343 342 335 335 328 339 335 331 329 322 241 232 232 231 238 202 204 198 201 219 208 200 206 209 202 195 196 194 199 204 208
341 341 344 337 337 334 340 338 335 332 334 316 229 231 232 224 216 211 207 207 222 219 201 206 209 202 198 196 197 200 203 206
341 343 341 337 340 337 344 343 341 339 342 351 306 214 234 216 217 219 224 196 192 202 203 205 205 198 199 198 199 203 203 205
342 344 341 338 345 344 348 348 348 349 351 351 1 7 293 227 228 202 230 212 196 188 193 201 196 195 197 199 199 202 206 207
345 344 341 342 348 347 350 350 350 351 351 355 4 15 22 19 7 284 291 201 181 164 182 194 190 197 199 197 196 199 202 204
347 346 343 344 348 346 348 349 349 351 355 359 4 14 14 10 14 26 44 270 220 199 200 193 187 197 199 201 201 201 202 201
349 345 343 344 347 345 346 345 350 350 356 5 9 9 8 6 9 19 25 40 144 182 190 193 195 197 197 197 195 196 199 203
352 348 343 344 345 344 346 346 349 350 356 6 7 6 6 8 12 14 10 28 27 23 180 173 178 188 190 192 198 198 201 200
352 347 348 346 347 346 338 342 349 350 354 5 5 8 6 5 11 19 12 15 36 28 20 217 178 179 195 199 200 201 198 196
352 350 351 351 349 345 347 345 346 352 358 3 6 11 2 359 9 31 9 19 27 46 49 53 79 67 206 210 207 214 207 207
354 352 349 352 348 348 345 351 353 357 359 3 5 11 352 353 12 32 11 22 33 35 56 57 35 32 32 209 211 202 205 195